Language: 


Des rapports , des résumés tant et plus, au choix de chacun....


Données statistiques de la station
Quotidien Rapport Février 2, 2017 Unités:  Anglais    Métrique   les deux
« Précédent Jour
Suivant Jour »
Quotidien Hebdomadaire Mensuel Annuel Actuel
  Haut: Bas: Moyen:
Température: 56.7 °F 32 °F 50.5 °F
Pt de rosée: 50 °F 45.7 °F 47.7 °F
Humidité: 97 % 0 % 90 %
Vitesse du vent: 16.6 mph 0 mph 7.2 mph
Rafales: 21.5 mph - -
Vent:- - South
Pression: 29.7 in 0 in -
Précipitation: 0.02 in    
Historical Graphs
 
 
Données statistiques pour Février 2, 2017
Heure Température Point de rosée Pression Vent Vitesse du vent Refales Humidité Pluie (taux horaire)
00:00 47.5 °F 46.8 °F 29.7 in South 5.6 mph 8.9 mph 97 % 0 in
00:05 47.7 °F 46.9 °F 29.7 in South 4.9 mph 8.9 mph 97 % 0 in
00:10 47.7 °F 46.9 °F 29.7 in South 4 mph 8.1 mph 97 % 0 in
00:15 47.7 °F 46.9 °F 29.7 in SSW 4 mph 8.5 mph 97 % 0 in
00:18 47.5 °F 46.8 °F 29.7 in SSW 4.3 mph 8.5 mph 97 % 0 in
00:23 47.5 °F 46.8 °F 29.7 in South 7.8 mph 8.5 mph 97 % 0 in
00:28 47.5 °F 46.8 °F 29.7 in South 8.1 mph 8.7 mph 97 % 0 in
00:33 47.7 °F 46.9 °F 29.7 in South 8.5 mph 9.4 mph 97 % 0 in
00:38 47.7 °F 46.9 °F 29.7 in SSW 6.3 mph 10.7 mph 97 % 0 in
00:43 47.7 °F 46.9 °F 29.7 in South 11.4 mph 11.4 mph 97 % 0 in
00:48 47.8 °F 47.1 °F 29.7 in SSW 5.6 mph 11.4 mph 97 % 0 in
00:49 47.8 °F 47.1 °F 29.7 in South 4.5 mph 11.4 mph 97 % 0 in
00:54 47.8 °F 47.1 °F 29.7 in South 7.2 mph 8.7 mph 97 % 0 in
00:59 48 °F 47.1 °F 29.7 in SSE 7.6 mph 10.1 mph 97 % 0 in
01:04 48 °F 47.1 °F 29.7 in South 4.9 mph 10.1 mph 97 % 0 in
01:09 48.2 °F 47.5 °F 29.7 in SSW 8.5 mph 13 mph 97 % 0 in
01:14 48.2 °F 47.5 °F 29.7 in SSE 4.7 mph 13 mph 97 % 0 in
01:19 48.4 °F 47.7 °F 29.7 in South 7.6 mph 8.7 mph 97 % 0 in
01:24 48.4 °F 47.3 °F 29.7 in South 7.6 mph 8.7 mph 96 % 0 in
01:29 48.2 °F 47.1 °F 29.7 in SSE 6.5 mph 7.8 mph 96 % 0 in
01:34 48 °F 46.9 °F 29.7 in SSW 6.3 mph 8.7 mph 96 % 0 in
01:39 47.8 °F 46.8 °F 29.7 in South 7.6 mph 10.3 mph 96 % 0 in
01:44 47.8 °F 46.8 °F 29.7 in SE 4.9 mph 10.3 mph 96 % 0 in
01:49 47.7 °F 46.9 °F 29.7 in SSE 8.7 mph 8.7 mph 97 % 0 in
01:54 47.7 °F 46.9 °F 29.7 in SSE 6.3 mph 9.6 mph 97 % 0 in
01:59 47.5 °F 46.8 °F 29.7 in South 4 mph 9.6 mph 97 % 0 in
02:04 47.3 °F 46.6 °F 29.7 in South 4.3 mph 7.8 mph 97 % 0 in
02:09 47.3 °F 46.6 °F 29.7 in SSW 3.8 mph 7.2 mph 97 % 0 in
02:14 47.1 °F 46.4 °F 29.7 in South 4 mph 6.9 mph 97 % 0 in
02:19 46.9 °F 46.2 °F 29.7 in South 6 mph 7.8 mph 97 % 0 in
02:24 46.9 °F 46.2 °F 29.7 in South 7.4 mph 8.1 mph 97 % 0 in
02:29 46.9 °F 46.2 °F 29.7 in SSE 3.1 mph 8.5 mph 97 % 0 in
02:34 46.9 °F 46.2 °F 29.7 in SSE 4.9 mph 8.5 mph 97 % 0 in
02:39 46.9 °F 46.2 °F 29.7 in South 5.4 mph 10.1 mph 97 % 0 in
02:44 46.9 °F 46.2 °F 29.7 in SSE 4 mph 11.9 mph 97 % 0 in
02:49 46.9 °F 46.2 °F 29.7 in South 6.3 mph 11.9 mph 97 % 0 in
02:54 46.9 °F 46.2 °F 29.7 in South 4 mph 8.5 mph 97 % 0 in
02:59 46.9 °F 46.2 °F 29.7 in SSW 5.4 mph 9.2 mph 97 % 0 in
03:06 32 °F 46.2 °F 0 in SSW 8.9 mph 8.9 mph 0 % 0 in
03:11 46.9 °F 46.2 °F 29.7 in SSE 7.4 mph 11 mph 97 % 0 in
03:16 46.9 °F 46.2 °F 29.7 in SSW 6.5 mph 11 mph 97 % 0 in
03:21 46.9 °F 46.2 °F 29.7 in SSE 3.6 mph 8.7 mph 97 % 0 in
03:26 46.9 °F 46.2 °F 29.7 in South 3.8 mph 7.2 mph 97 % 0 in
03:31 46.9 °F 46.2 °F 29.7 in SSE 3.6 mph 6.3 mph 97 % 0 in
03:36 46.9 °F 46.2 °F 29.7 in SSE 3.1 mph 6.3 mph 97 % 0 in
03:41 46.9 °F 46.2 °F 29.7 in South 4.3 mph 7.8 mph 97 % 0 in
03:46 47.1 °F 46.4 °F 29.7 in South 7.4 mph 9.4 mph 97 % 0 in
03:51 47.1 °F 46.4 °F 29.7 in South 8.1 mph 9.4 mph 97 % 0 in
03:56 47.1 °F 46.4 °F 29.7 in South 3.6 mph 8.5 mph 97 % 0 in
04:01 47.1 °F 46.4 °F 29.7 in SSE 4 mph 8.5 mph 97 % 0 in
04:06 47.1 °F 46.4 °F 29.7 in SSE 4.7 mph 8.5 mph 97 % 0 in
04:11 47.1 °F 46.4 °F 29.7 in South 6.5 mph 8.5 mph 97 % 0 in
04:16 47.1 °F 46.4 °F 29.7 in South 5.6 mph 9.4 mph 97 % 0 in
04:21 46.9 °F 46.2 °F 29.7 in South 6 mph 9.4 mph 97 % 0 in
04:26 47.1 °F 46.4 °F 29.6 in SE 3.1 mph 8.7 mph 97 % 0 in
04:31 46.9 °F 46.2 °F 29.6 in SSE 4.7 mph 8.7 mph 97 % 0 in
04:36 46.9 °F 46.2 °F 29.6 in South 3.4 mph 8.1 mph 97 % 0 in
04:41 46.9 °F 46.2 °F 29.6 in SSE 7.2 mph 8.7 mph 97 % 0 in
04:46 46.8 °F 46 °F 29.6 in South 10.3 mph 10.7 mph 97 % 0 in
04:51 46.9 °F 46.2 °F 29.6 in SSE 5.4 mph 10.7 mph 97 % 0 in
04:56 46.8 °F 46 °F 29.7 in SSE 8.5 mph 10.3 mph 97 % 0 in
05:01 46.6 °F 45.9 °F 29.7 in SSW 6.3 mph 8.9 mph 97 % 0 in
05:06 46.6 °F 45.9 °F 29.7 in SSW 5.8 mph 9.8 mph 97 % 0 in
05:11 46.8 °F 46 °F 29.7 in South 7.8 mph 12.1 mph 97 % 0 in
05:16 46.8 °F 46 °F 29.7 in South 8.7 mph 12.1 mph 97 % 0 in
05:21 46.8 °F 46 °F 29.7 in South 7.6 mph 11.9 mph 97 % 0 in
05:26 46.8 °F 46 °F 29.7 in South 8.7 mph 12.5 mph 97 % 0 in
05:31 46.8 °F 46 °F 29.7 in SSE 5.8 mph 12.5 mph 97 % 0 in
05:36 46.6 °F 45.9 °F 29.7 in SSE 3.6 mph 10.3 mph 97 % 0 in
05:41 46.6 °F 45.9 °F 29.7 in South 3.1 mph 8.1 mph 97 % 0 in
05:46 46.6 °F 45.7 °F 29.7 in SSE 2.9 mph 7.2 mph 97 % 0 in
05:51 46.6 °F 45.7 °F 29.7 in SSE 6.5 mph 7.4 mph 97 % 0 in
05:56 46.6 °F 45.7 °F 29.7 in SSE 5.4 mph 8.5 mph 97 % 0 in
06:01 46.6 °F 45.9 °F 29.7 in South 3.8 mph 10.5 mph 97 % 0 in
06:06 46.6 °F 45.9 °F 29.7 in SSE 2.5 mph 10.5 mph 97 % 0 in
06:11 46.8 °F 46 °F 29.7 in SSE 5.8 mph 8.7 mph 97 % 0 in
06:16 46.8 °F 46 °F 29.7 in South 3.4 mph 8.7 mph 97 % 0 in
06:21 46.8 °F 46 °F 29.7 in SSE 4.9 mph 10.3 mph 97 % 0 in
06:26 46.8 °F 46 °F 29.6 in South 4.3 mph 10.3 mph 97 % 0 in
06:31 46.8 °F 46 °F 29.6 in South 6.3 mph 8.7 mph 97 % 0 in
06:36 46.9 °F 46.2 °F 29.6 in SSE 5.6 mph 8.7 mph 97 % 0 in
06:41 46.9 °F 46.2 °F 29.7 in South 1.1 mph 7.4 mph 97 % 0 in
06:46 46.9 °F 46.2 °F 29.7 in SSW 4.3 mph 9.4 mph 97 % 0 in
06:51 46.9 °F 46.2 °F 29.7 in South 6.3 mph 9.4 mph 97 % 0 in
06:56 46.9 °F 46.2 °F 29.6 in South 4.9 mph 8.7 mph 97 % 0 in
07:01 46.9 °F 46.2 °F 29.6 in South 6.3 mph 8.7 mph 97 % 0 in
07:06 46.9 °F 46.2 °F 29.6 in South 5.4 mph 10.1 mph 97 % 0 in
07:11 46.9 °F 46.2 °F 29.6 in South 6 mph 10.5 mph 97 % 0 in
07:16 47.1 °F 46.4 °F 29.6 in South 8.1 mph 13 mph 97 % 0 in
07:21 47.1 °F 46.4 °F 29.6 in SSW 6.3 mph 13 mph 97 % 0 in
07:26 47.1 °F 46.4 °F 29.6 in SSW 5.6 mph 13 mph 97 % 0 in
07:31 47.1 °F 46.4 °F 29.6 in South 7.4 mph 12.5 mph 97 % 0 in
07:36 47.1 °F 46.4 °F 29.6 in South 6 mph 14.5 mph 97 % 0 in
07:41 47.1 °F 46.4 °F 29.6 in SSE 8.9 mph 14.5 mph 97 % 0 in
07:46 47.1 °F 46.4 °F 29.6 in South 8.7 mph 14.3 mph 97 % 0 in
07:51 47.3 °F 46.6 °F 29.6 in SSE 5.8 mph 14.3 mph 97 % 0 in
07:56 47.3 °F 46.6 °F 29.6 in SSW 3.8 mph 13.6 mph 97 % 0 in
08:01 47.3 °F 46.6 °F 29.6 in SSE 5.4 mph 13.6 mph 97 % 0 in
08:06 47.3 °F 46.6 °F 29.6 in South 5.4 mph 14.8 mph 97 % 0 in
08:11 47.5 °F 46.8 °F 29.6 in South 5.8 mph 14.8 mph 97 % 0 in
08:16 47.5 °F 46.4 °F 29.6 in SSW 16.6 mph 16.6 mph 96 % 0 in
08:21 47.5 °F 46.4 °F 29.6 in South 3.8 mph 16.6 mph 96 % 0 in
08:26 47.5 °F 46.4 °F 29.6 in SSE 7.6 mph 12.3 mph 96 % 0 in
08:31 47.5 °F 46.4 °F 29.6 in South 4.9 mph 11.9 mph 96 % 0 in
08:36 47.5 °F 46.4 °F 29.6 in SSE 5.8 mph 14.3 mph 96 % 0 in
08:41 47.7 °F 46.6 °F 29.6 in South 8.5 mph 14.3 mph 96 % 0 in
08:46 47.7 °F 46.6 °F 29.6 in SSE 10.5 mph 12.1 mph 96 % 0 in
08:51 47.8 °F 46.8 °F 29.6 in SSW 9.8 mph 12.1 mph 96 % 0 in
08:56 48 °F 46.9 °F 29.6 in South 6.7 mph 12.8 mph 96 % 0 in
09:01 48 °F 46.9 °F 29.6 in SSW 6 mph 12.8 mph 96 % 0 in
09:06 48 °F 46.9 °F 29.6 in South 6.3 mph 12.5 mph 96 % 0 in
09:07 48 °F 46.9 °F 29.6 in SSW 7.6 mph 12.5 mph 96 % 0 in
09:12 48.2 °F 47.1 °F 29.6 in South 7.6 mph 12.5 mph 96 % 0 in
09:17 48.2 °F 47.1 °F 29.6 in South 4.3 mph 15.7 mph 96 % 0 in
09:22 48.4 °F 46.9 °F 29.6 in SSE 8.1 mph 15.7 mph 95 % 0 in
09:27 48.6 °F 47.1 °F 29.6 in SSE 10.3 mph 13.2 mph 95 % 0 in
09:32 48.7 °F 47.5 °F 29.6 in SSE 10.1 mph 12.3 mph 95 % 0 in
09:37 48.9 °F 47.7 °F 29.6 in SSE 8.1 mph 12.1 mph 95 % 0 in
09:42 48.9 °F 47.7 °F 29.6 in SSE 5.4 mph 13 mph 95 % 0 in
09:47 49.1 °F 47.7 °F 29.6 in SSE 7.6 mph 13.2 mph 95 % 0 in
09:52 49.1 °F 47.5 °F 29.6 in South 10.3 mph 13.4 mph 94 % 0 in
09:57 49.3 °F 47.7 °F 29.6 in South 7.4 mph 15.7 mph 94 % 0 in
10:02 49.1 °F 47.5 °F 29.6 in SSE 5.4 mph 15.7 mph 94 % 0 in
10:07 49.1 °F 47.5 °F 29.6 in SE 4.9 mph 10.5 mph 94 % 0 in
10:12 49.1 °F 47.5 °F 29.6 in SSE 6.5 mph 11 mph 94 % 0 in
10:17 49.3 °F 47.7 °F 29.6 in South 3.1 mph 11 mph 94 % 0 in
10:22 49.3 °F 47.7 °F 29.6 in SSE 7.8 mph 10.7 mph 94 % 0 in
10:27 49.5 °F 47.8 °F 29.6 in South 8.1 mph 12.8 mph 94 % 0 in
10:32 49.6 °F 47.7 °F 29.6 in SE 6 mph 12.8 mph 93 % 0 in
10:37 49.8 °F 47.8 °F 29.6 in SSE 5.4 mph 12.1 mph 93 % 0 in
10:42 49.8 °F 47.8 °F 29.6 in SSE 3.4 mph 13.2 mph 93 % 0 in
10:47 50.2 °F 47.8 °F 29.6 in SSW 7.4 mph 14.8 mph 92 % 0 in
10:52 50.4 °F 48 °F 29.6 in SSE 6.9 mph 14.8 mph 92 % 0 in
10:57 50.7 °F 48.2 °F 29.6 in SSE 9.2 mph 12.5 mph 91 % 0 in
11:02 51.1 °F 48.2 °F 29.6 in SSE 10.1 mph 12.5 mph 90 % 0 in
11:07 51.3 °F 48.4 °F 29.6 in South 10.5 mph 12.1 mph 90 % 0 in
11:12 51.4 °F 48 °F 29.6 in South 8.7 mph 12.1 mph 88 % 0 in
11:17 51.4 °F 48 °F 29.6 in SSE 10.7 mph 14.1 mph 88 % 0 in
11:22 51.6 °F 47.8 °F 29.6 in SSE 4.9 mph 14.1 mph 87 % 0 in
11:27 52 °F 48.2 °F 29.6 in SSE 8.7 mph 17.4 mph 87 % 0 in
11:32 52.5 °F 48.6 °F 29.6 in SSE 8.1 mph 17.4 mph 86 % 0 in
11:37 53.2 °F 48.7 °F 29.6 in SSE 7.6 mph 13.2 mph 85 % 0 in
11:42 53.2 °F 48.6 °F 29.6 in South 7.4 mph 13.2 mph 84 % 0 in
11:47 53.8 °F 48.9 °F 29.6 in South 8.5 mph 13.2 mph 84 % 0 in
11:52 54 °F 48.9 °F 29.6 in South 5.4 mph 13.2 mph 83 % 0 in
11:57 54.3 °F 48.9 °F 29.6 in SSW 6.3 mph 15.7 mph 82 % 0 in
12:02 54.3 °F 48.7 °F 29.6 in South 6.5 mph 15.7 mph 81 % 0 in
12:07 54.1 °F 48.6 °F 29.6 in SSE 13 mph 14.5 mph 81 % 0 in
12:12 53.4 °F 47.1 °F 29.6 in South 4.9 mph 14.5 mph 79 % 0 in
12:17 53.4 °F 47.5 °F 29.6 in SSE 7.8 mph 12.5 mph 80 % 0 in
12:22 54 °F 48 °F 29.6 in South 5.8 mph 16.8 mph 80 % 0 in
12:27 54.3 °F 48.4 °F 29.6 in SSW 15.2 mph 16.8 mph 80 % 0 in
12:32 54.7 °F 48.2 °F 29.6 in SSE 10.5 mph 15.9 mph 79 % 0 in
12:37 54.9 °F 48.4 °F 29.6 in South 9.8 mph 13.6 mph 79 % 0 in
12:42 55.2 °F 48.9 °F 29.6 in SSW 6.3 mph 12.5 mph 79 % 0 in
12:47 55.6 °F 48.4 °F 29.6 in SSW 9.2 mph 12.5 mph 77 % 0 in
12:52 55.6 °F 48.4 °F 29.6 in South 12.8 mph 15.2 mph 77 % 0 in
12:57 55.6 °F 48.2 °F 29.6 in SSW 7.6 mph 15.2 mph 76 % 0 in
13:02 55.6 °F 47.5 °F 29.6 in South 14.5 mph 15.7 mph 74 % 0 in
13:07 55.6 °F 47.3 °F 29.6 in South 7.6 mph 16.6 mph 74 % 0 in
13:12 55.6 °F 47.8 °F 29.6 in South 12.1 mph 16.6 mph 75 % 0 in
13:17 55.8 °F 48 °F 29.6 in SSE 5.6 mph 15.4 mph 75 % 0 in
13:22 55.6 °F 47.3 °F 29.6 in South 8.1 mph 17.2 mph 74 % 0 in
13:27 55 °F 46.9 °F 29.6 in South 10.1 mph 17.2 mph 74 % 0 in
13:32 55 °F 46.9 °F 29.6 in South 13.2 mph 15.7 mph 74 % 0 in
13:37 55.2 °F 47.1 °F 29.6 in South 12.3 mph 17.4 mph 74 % 0 in
13:42 55.6 °F 47.8 °F 29.6 in SSE 13 mph 21.5 mph 75 % 0 in
13:47 55.9 °F 47.8 °F 29.6 in South 10.3 mph 21.5 mph 74 % 0 in
13:52 56.1 °F 48 °F 29.6 in South 8.9 mph 15.2 mph 74 % 0 in
13:57 56.5 °F 48.4 °F 29.6 in South 11 mph 17 mph 74 % 0 in
14:02 56.7 °F 48 °F 29.6 in SSW 6 mph 17 mph 73 % 0 in
14:07 56.7 °F 48 °F 29.5 in South 8.5 mph 19 mph 73 % 0 in
14:12 56.7 °F 48.6 °F 29.5 in South 8.7 mph 19 mph 74 % 0 in
14:17 56.1 °F 48 °F 29.5 in SSE 11.9 mph 14.8 mph 74 % 0 in
14:22 55.8 °F 47.7 °F 29.5 in South 7.4 mph 14.8 mph 74 % 0 in
14:27 55.6 °F 47.5 °F 29.5 in South 5.8 mph 14.8 mph 74 % 0 in
14:32 55.6 °F 47.8 °F 29.5 in South 8.7 mph 14.8 mph 75 % 0 in
14:37 55.6 °F 48 °F 29.5 in South 5.4 mph 14.8 mph 76 % 0 in
14:42 55.6 °F 48 °F 29.5 in South 10.7 mph 13 mph 76 % 0 in
14:47 55.6 °F 48.2 °F 29.5 in South 10.3 mph 13.4 mph 76 % 0 in
14:52 55.8 °F 48.7 °F 29.5 in SSW 10.7 mph 13.4 mph 77 % 0 in
14:57 55.8 °F 48.4 °F 29.5 in SSW 6.3 mph 13.6 mph 76 % 0 in
15:02 55.8 °F 48 °F 29.5 in South 4 mph 13.6 mph 75 % 0 in
15:07 55.6 °F 47.8 °F 29.5 in South 7.2 mph 13.2 mph 75 % 0 in
15:12 55.6 °F 47.8 °F 29.5 in South 8.5 mph 13.2 mph 75 % 0 in
15:17 55.6 °F 47.7 °F 29.5 in South 6.3 mph 10.7 mph 75 % 0 in
15:22 55.2 °F 47.5 °F 29.5 in South 7.6 mph 10.7 mph 75 % 0 in
15:27 55.2 °F 47.5 °F 29.5 in South 8.1 mph 17 mph 75 % 0 in
15:32 55 °F 47.3 °F 29.5 in SSE 7.2 mph 17 mph 75 % 0 in
15:37 54.9 °F 47.7 °F 29.5 in SSW 11.2 mph 13.6 mph 77 % 0 in
15:42 54.7 °F 47.8 °F 29.5 in SSW 2.9 mph 13.6 mph 78 % 0 in
15:47 54.1 °F 47.8 °F 29.5 in South 5.6 mph 11.2 mph 79 % 0 in
15:52 54 °F 48 °F 29.5 in South 4.3 mph 15.4 mph 80 % 0 in
15:57 54 °F 48.2 °F 29.5 in SSE 8.5 mph 15.4 mph 81 % 0 in
16:02 53.4 °F 48.2 °F 29.5 in South 10.1 mph 12.8 mph 82 % 0 in
16:07 53.2 °F 48 °F 29.5 in South 6.3 mph 10.3 mph 82 % 0 in
16:12 53.2 °F 48.4 °F 29.5 in South 7.8 mph 14.3 mph 83 % 0 in
16:17 53.2 °F 48 °F 29.5 in South 10.5 mph 14.3 mph 83 % 0 in
16:22 53.2 °F 48.6 °F 29.5 in SSE 12.5 mph 13.4 mph 84 % 0 in
16:27 53.2 °F 48.6 °F 29.5 in SSE 10.7 mph 16.3 mph 84 % 0 in
16:32 53.2 °F 48.4 °F 29.5 in South 12.5 mph 16.3 mph 83 % 0 in
16:37 53.2 °F 48.4 °F 29.5 in SSE 12.1 mph 15.4 mph 83 % 0 in
16:42 53.4 °F 48.2 °F 29.5 in South 5.4 mph 17.4 mph 82 % 0 in
16:47 53.4 °F 48.2 °F 29.5 in SSE 15.9 mph 17.4 mph 82 % 0 in
16:52 53.4 °F 48.2 °F 29.5 in SSE 15.4 mph 15.9 mph 82 % 0 in
16:57 53.4 °F 48.2 °F 29.5 in South 12.1 mph 15.4 mph 82 % 0 in
17:02 53.2 °F 48.4 °F 29.5 in SSW 9.4 mph 17.2 mph 83 % 0 in
17:07 53.2 °F 48.4 °F 29.5 in South 10.3 mph 17.9 mph 83 % 0 in
17:12 53.2 °F 48.6 °F 29.5 in SSW 7.6 mph 17.9 mph 84 % 0 in
17:17 53.1 °F 48.6 °F 29.5 in SSW 8.5 mph 17.7 mph 85 % 0 in
17:22 52.9 °F 49.1 °F 29.5 in South 5.6 mph 14.1 mph 87 % 0 in
17:27 52.5 °F 49.5 °F 29.5 in South 11.9 mph 20.4 mph 89 % 0 in
17:32 52.5 °F 49.6 °F 29.5 in South 8.7 mph 20.4 mph 90 % 0.01 in
17:37 52.3 °F 49.6 °F 29.5 in SSW 8.5 mph 15.2 mph 91 % 0.01 in
17:42 52.2 °F 49.8 °F 29.5 in SSW 7.8 mph 15.4 mph 92 % 0.01 in
17:47 52 °F 49.6 °F 29.5 in South 11 mph 15.4 mph 92 % 0.01 in
17:52 51.8 °F 49.8 °F 29.5 in South 8.1 mph 13.2 mph 93 % 0.01 in
17:57 51.8 °F 49.8 °F 29.5 in SSE 14.1 mph 14.1 mph 93 % 0.01 in
18:02 51.6 °F 49.6 °F 29.5 in South 7.8 mph 14.1 mph 93 % 0.01 in
18:07 51.6 °F 49.6 °F 29.5 in South 8.1 mph 12.8 mph 93 % 0.01 in
18:12 51.4 °F 49.5 °F 29.5 in SSE 8.7 mph 12.8 mph 93 % 0.01 in
18:13 51.4 °F 49.5 °F 29.5 in South 6 mph 12.8 mph 93 % 0.01 in
18:18 51.6 °F 49.6 °F 29.5 in SSW 6 mph 16.6 mph 93 % 0.01 in
18:23 51.6 °F 49.3 °F 29.5 in South 9.8 mph 16.6 mph 92 % 0.01 in
18:28 51.6 °F 49.3 °F 29.5 in SSW 6.9 mph 13.2 mph 92 % 0.02 in
18:33 51.6 °F 49.3 °F 29.5 in SSE 8.7 mph 12.1 mph 92 % 0.01 in
18:38 51.6 °F 49.3 °F 29.5 in South 12.3 mph 12.5 mph 92 % 0.01 in
18:43 51.6 °F 49.3 °F 29.5 in SSW 6 mph 13.2 mph 92 % 0.01 in
18:48 51.6 °F 48.9 °F 29.5 in SSW 7.6 mph 13.2 mph 91 % 0.01 in
18:53 51.6 °F 48.9 °F 29.5 in SSW 6.5 mph 12.5 mph 91 % 0.01 in
18:58 51.6 °F 48.9 °F 29.5 in SSW 8.9 mph 10.5 mph 91 % 0.01 in
19:03 51.6 °F 48.9 °F 29.5 in South 5.6 mph 10.5 mph 91 % 0.01 in
19:08 51.6 °F 48.9 °F 29.5 in South 5.4 mph 11 mph 91 % 0.01 in
19:13 51.8 °F 48.9 °F 29.5 in SSE 7.4 mph 11 mph 90 % 0.01 in
19:18 51.8 °F 48.9 °F 29.5 in South 6.3 mph 11 mph 90 % 0.01 in
19:23 52 °F 48.7 °F 29.5 in South 8.1 mph 11.2 mph 89 % 0.01 in
19:28 52.2 °F 48.9 °F 29.5 in South 7.6 mph 14.3 mph 89 % 0 in
19:33 52.3 °F 48.7 °F 29.5 in SSW 7.6 mph 14.3 mph 88 % 0 in
19:38 52.3 °F 48.7 °F 29.5 in South 9.4 mph 12.5 mph 88 % 0 in
19:43 52.3 °F 48.7 °F 29.5 in SSW 10.3 mph 12.5 mph 88 % 0 in
19:48 52.3 °F 48.7 °F 29.5 in SSW 6 mph 12.1 mph 88 % 0 in
19:53 52.3 °F 48.7 °F 29.5 in South 7.6 mph 11.2 mph 88 % 0 in
19:58 52.3 °F 48.7 °F 29.5 in South 10.1 mph 11.2 mph 88 % 0 in
20:03 52.3 °F 48.7 °F 29.5 in South 6.3 mph 12.1 mph 88 % 0 in
20:08 52.3 °F 48.7 °F 29.5 in SSW 7.8 mph 12.1 mph 88 % 0 in
20:13 52.3 °F 48.6 °F 29.5 in SSW 10.3 mph 10.7 mph 87 % 0 in
20:18 52.3 °F 48.6 °F 29.5 in South 6.5 mph 12.8 mph 87 % 0 in
20:23 52.3 °F 48.6 °F 29.5 in SSW 3.8 mph 12.8 mph 87 % 0 in
20:28 52.3 °F 48.6 °F 29.5 in SSE 7.8 mph 10.5 mph 87 % 0 in
20:33 52.3 °F 48.7 °F 29.5 in SSW 5.8 mph 10.3 mph 88 % 0 in
20:38 52.3 °F 48.7 °F 29.5 in SSE 8.5 mph 10.7 mph 88 % 0 in
20:43 52.2 °F 48.7 °F 29.5 in South 7.4 mph 11.9 mph 88 % 0 in
20:48 52.2 °F 48.7 °F 29.5 in SSW 8.1 mph 11.9 mph 88 % 0 in
20:53 52.2 °F 48.7 °F 29.5 in South 7.6 mph 11.9 mph 88 % 0 in
20:58 52.2 °F 48.7 °F 29.5 in South 11.9 mph 12.8 mph 88 % 0 in
21:03 52.2 °F 48.9 °F 29.5 in SSW 8.9 mph 14.8 mph 89 % 0 in
21:08 52.2 °F 48.9 °F 29.5 in SSW 4.9 mph 11.4 mph 89 % 0 in
21:13 52.2 °F 48.9 °F 29.5 in South 9.6 mph 10.3 mph 89 % 0 in
21:18 52.2 °F 48.9 °F 29.5 in SSW 6 mph 9.8 mph 89 % 0 in
21:23 52.2 °F 48.9 °F 29.5 in South 8.7 mph 9.6 mph 89 % 0 in
21:28 52.2 °F 48.9 °F 29.5 in SSW 4.3 mph 15.2 mph 89 % 0 in
21:33 52 °F 49.1 °F 29.5 in South 7.8 mph 15.2 mph 90 % 0 in
21:38 52 °F 49.1 °F 29.5 in South 9.6 mph 12.3 mph 90 % 0 in
21:43 52 °F 49.1 °F 29.5 in South 5.6 mph 9.6 mph 90 % 0 in
21:48 52 °F 49.5 °F 29.5 in South 8.5 mph 10.3 mph 91 % 0 in
21:53 51.8 °F 49.3 °F 29.5 in South 7.4 mph 10.7 mph 91 % 0 in
21:58 52 °F 49.5 °F 29.5 in SSW 10.7 mph 12.5 mph 91 % 0 in
22:03 52.2 °F 49.6 °F 29.5 in WSW 7.4 mph 12.5 mph 91 % 0 in
22:08 52.2 °F 49.6 °F 29.5 in SSW 7.2 mph 10.5 mph 91 % 0 in
22:13 52.2 °F 49.6 °F 29.5 in South 8.5 mph 8.7 mph 91 % 0 in
22:14 52.2 °F 49.6 °F 29.5 in South 8.5 mph 8.7 mph 91 % 0 in
22:19 52.2 °F 49.6 °F 29.5 in South 4.7 mph 10.7 mph 91 % 0 in
22:24 52.2 °F 49.6 °F 29.5 in SW 7.4 mph 10.7 mph 91 % 0 in
22:29 52.2 °F 49.6 °F 29.5 in SW 4.3 mph 9.6 mph 91 % 0 in
22:34 52.2 °F 49.6 °F 29.5 in SW 3.8 mph 9.6 mph 91 % 0 in
22:39 52.2 °F 49.6 °F 29.5 in SW 4.9 mph 8.1 mph 91 % 0 in
22:44 52.2 °F 49.6 °F 29.5 in SSW 8.7 mph 8.7 mph 91 % 0 in
22:49 52.2 °F 49.6 °F 29.5 in SSW 7.4 mph 8.7 mph 91 % 0 in
22:54 52.2 °F 49.8 °F 29.5 in SW 5.4 mph 10.7 mph 92 % 0 in
22:59 52.2 °F 49.8 °F 29.5 in SW 5.8 mph 10.7 mph 92 % 0 in
23:04 52.2 °F 49.8 °F 29.5 in SSW 8.5 mph 11.9 mph 92 % 0 in
23:09 52 °F 49.6 °F 29.5 in SSW 5.8 mph 11.9 mph 92 % 0 in
23:14 52 °F 49.6 °F 29.5 in South 4.9 mph 9.6 mph 92 % 0 in
23:19 52 °F 49.6 °F 29.5 in SSW 4.3 mph 8.7 mph 92 % 0 in
23:24 52 °F 50 °F 29.5 in SSW 8.1 mph 10.5 mph 93 % 0 in
23:29 52 °F 49.6 °F 29.5 in SSW 2.9 mph 10.5 mph 92 % 0 in
23:34 51.8 °F 49.5 °F 29.5 in SSW 5.6 mph 8.5 mph 92 % 0 in
23:39 51.8 °F 49.5 °F 29.5 in SW 6.5 mph 8.7 mph 92 % 0 in
23:44 51.6 °F 49.6 °F 29.5 in SSW 5.6 mph 8.7 mph 93 % 0 in
23:49 51.6 °F 49.6 °F 29.5 in Calm   7.8 mph 93 % 0 in
23:54 51.4 °F 49.5 °F 29.5 in South 6.5 mph 8.1 mph 93 % 0 in
23:59 51.4 °F 49.5 °F 29.5 in SSW 7.6 mph 9.4 mph 93 % 0 in
Le Gheer Warneton
Courtoisie de Weather Underground - 2.5 mb

Mise a jour : 17/12/2017 22:26:11
Généré par Cumulus 1.9.4 (1099)